Regional Weather Roundup
Issued by NWS Charleston, SC

Current Version | Previous Version | Graphics & Text | Print | Product List | Glossary On
Versions: 1 2 3 4 5 6 7 8 9 10 11 12 13 14 15 16 17 18 19 20 21 22 23 24 25 26 27 28 29 30 31 32 33 34 35 36 37 38 39 40 41 42 43 44 45 46 47 48 49 50
437
ASUS42 KCHS 180027
RWRCHS

REGIONAL WEATHER ROUNDUP
NATIONAL WEATHER SERVICE CHARLESTON SC
700 PM EST FRI NOV 17 2017

NOTE: "FAIR" INDICATES FEW OR NO CLOUDS BELOW 12,000 FEET WITH NO
SIGNIFICANT WEATHER AND/OR OBSTRUCTIONS TO VISIBILITY.

NOT ALL STATIONS ARE QUALITY CONTROLLED. USE DATA WITH CAUTION...
ESPECIALLY DEWPOINT OBSERVATIONS.

SCZ027-030-031-034>040-042>050-180100-
...SOUTHEAST SOUTH CAROLINA...

CITY           SKY/WX    TMP DP  RH WIND       PRES   REMARKS
N CHARLESTON   CLEAR     52  45  77 E7        30.16R
6HR MIN TEMP:  51; 6HR MAX TEMP:  66;

WATERFRONT PRK NOT AVBL
JOHNS ISLAND   FAIR      50  46  87 CALM      30.15F
PINOPOLIS        N/A     54  46  76 SE6       30.08R
MONCKS CORNER  FAIR      46  43  87 CALM      30.16S
SUMMERVILLE    FAIR      46  43  87 SE3       30.16F
BEAUFORT MCAS  CLEAR     55  50  83 E5        30.14F
6HR MIN TEMP:  51; 6HR MAX TEMP:  66;

BEAUFORT ARPT  FAIR      52  46  82 E6        30.13F
HILTON HEAD IS CLEAR     57  52  82 NE6       30.14F
WALTERBORO     CLEAR     46  43  87 SE3       30.16R
ALLENDALE      FAIR      50  41  71 CALM      30.13R

...SOUTHERN MIDLANDS AND PEE DEE...

CITY           SKY/WX    TMP DP  RH WIND       PRES   REMARKS
GEORGETOWN     FAIR      41  39  93 CALM      30.18R
KINGSTREE      FAIR      41  41 100 CALM      30.15F
ORANGEBURG     CLEAR     47  40  76 E3        30.14F
6HR MIN TEMP:  47; 6HR MAX TEMP:  64;

BARNWELL         N/A     48  41  76 CALM      30.14R
AIKEN          FAIR      46  36  66 SE3       30.17R
MANNING        FAIR      43  41  93 MISG      30.15S
COLUMBIA       CLEAR     49  41  74 CALM      30.14R
6HR MIN TEMP:  49; 6HR MAX TEMP:  66;

SUMTER         CLEAR     47  37  68 CALM      30.12S
6HR MIN TEMP:  46; 6HR MAX TEMP:  63;

FLORENCE       CLEAR     48  40  73 CALM      30.16S
6HR MIN TEMP:  47; 6HR MAX TEMP:  62;

MYRTLE BEACH   CLEAR     46  43  89 CALM      30.18S
N MYRTLE BEACH CLEAR     45  43  93 CALM      30.16F
6HR MIN TEMP:  45; 6HR MAX TEMP:  60;


$$

GAZ063-065-086>088-099>101-113>116-118-119-134>141-150-180100-
...SOUTHEAST GEORGIA...

CITY           SKY/WX    TMP DP  RH WIND       PRES   REMARKS
SAVANNAH ARPT  PTCLDY    56  48  74 E7        30.14F
6HR MIN TEMP:  55; 6HR MAX TEMP:  69;

HUNTER AAF     CLEAR     55  48  77 E7        30.11F
6HR MIN TEMP:  55; 6HR MAX TEMP:  67;

FORT STEWART   CLEAR     55  48  78 E5        30.11F
6HR MIN TEMP:  55; 6HR MAX TEMP:  71;

STATESBORO     CLEAR     47  40  75 CALM      30.13R
SYLVANIA       CLEAR     53  45  73 CALM      30.14R
CLAXTON        FAIR      51  48  90 CALM      30.13R

...CSRA...CENTRAL AND FAR SOUTHEAST GEORGIA...

CITY           SKY/WX    TMP DP  RH WIND       PRES   REMARKS
THOMSON        CLEAR     45  41  84 CALM      30.17S
AUGUSTA-BUSH   CLEAR     46  40  79 CALM      30.13R
6HR MIN TEMP:  46; 6HR MAX TEMP:  68;

AUGUSTA-DANIEL CLEAR     60  36  40 SE3       30.13R
SWAINSBORO     FAIR      50  43  76 CALM      30.12S
VIDALIA        PTCLDY    55  45  67 SE5       30.12S
EASTMAN        FAIR      51  39  64 CALM      30.13S
HAZLEHURST     FAIR      61  42  49 SE3       30.10S
ALMA           PTCLDY    61  52  72 E3        30.11R
6HR MIN TEMP:  58; 6HR MAX TEMP:  71;

WAYCROSS       CLEAR     60  53  75 SE6       30.12R
JESUP          MOCLDY    57  52  82 CALM      30.13R
BAXLEY         FAIR      57  52  82 SE3       30.11S
BRUNSWICK      PTCLDY    57  54  88 NE6       30.12F
SAINT SIMONS   PTCLDY    61  57  87 NE7       30.11S
6HR MIN TEMP:  61; 6HR MAX TEMP:  70;


$$

SCZ027-028-034-036>038-045-046-048>050-GAZ119-141-180100-
...LAKE AND SUPPLEMENTAL COASTAL OBSERVATIONS...

STATION/POSITION TIME  TEMP    WIND        PRES    WAVE   SWELL
                       AIR SEA DIR/SP/G            HT/PER HT/PER/DIR
                 (UTC) (F)     (DEG/KT/KT) (MB)    (FT/S) (FT/S/D)
WINYAH BAY       2345   48     330/  1     1021.0S
LAKE MURRAY      0020   54        CALM     1020.0
ACE BASIN NERRS  2345   51        CALM     1021.0S
FORT PULASKI     NOT AVBL
SAPELO ISLAND    0000   58      50/  5     1020.0

$$

ANZ835-935-AMZ111-154-330-350-352-354-370-450-454-472-180100-
...C-MAN AND BUOY OBSERVATIONS...

STATION/POSITION TIME  TEMP    WIND        PRES    WAVE   SWELL
                       AIR SEA DIR/SP/G            HT/PER HT/PER/DIR
                 (UTC) (F)     (DEG/KT/KT) (MB)    (FT/S) (FT/S/D)
BUOY 41004       0010   63 76   50/  8/ 14 1020.3
BUOY 41008       2350   65 68   50/ 16/ 19 1019.4R   5/ 6   2/ 90/ 9
FOLLY BEACH CMAN 0000   58      70/ 10/ 12 1021.7R
CAPERS NEARSHORE 0008   55 63   90/ 10/ 14 1020.9R
FRIPP NEARSHORE  0008   57 63   70/ 12/ 19 1019.9F


STATION/POSITION TIME  TEMP    WIND        PRES    WAVE   SWELL
                       AIR SEA DIR/SP/G            HT/PER HT/PER/DIR
                 (UTC) (F)     (DEG/KT/KT) (MB)    (FT/S) (FT/S/D)
5E ST. MARYS GA  0000      68                N/A     4/ 5   2/ 80/11
FRYING PAN BUOY  0010   58 72   40/ 10/ 14 1021.0
BUOY 41025       0010   54 64   10/ 10/ 14 1022.0
CAPE LOOKOUT NC  0000   52      10/  5/  5 1022.3R
BUOY 41002       2350   68 77   40/ 12/ 16 1018.8R   7/ 8   7/ 20/ 8
BUOY 41010       NOT AVBL
ST AUGUSTINE FL  0000   65 69  330/  8/  9 1018.9R


$$




USA.gov is the U.S. government's official web portal to all federal, state and local government web resources and services.